User: anonymous   Login
Location: NJAA Observatory
(40.6819°N, 74.8979°W)
Time: 21:19:03
(UTC-05:00)
Language:

Iridium 56 - Orbit

View from above orbital plane
View from above orbital plane
View from above satellite
View from above satellite

Ground track
Ground track

The orbit data is extracted from the following two-line orbital elements,

1 25170U 98010B   14332.24072464  .00000062  00000-0  15096-4 0  7626
2 25170 086.3980 020.0155 0002255 114.1640 312.5473 14.34213858878181
Epoch (UTC): 28 November 2014 05:46:38
Eccentricity: 0.0002255
inclination: 86.3980°
perigee height: 776 km
apogee height: 779 km
right ascension of ascending node: 20.0155°
argument of perigee: 114.1640°
revolutions per day: 14.34213858
mean anomaly at epoch: 312.5473°
orbit number at epoch: 87818

The dashed part of the orbit path shows where the satellite is in the earth's shadow,  

DLR